Year,Month,Day,Hour,Minute,Value (Times are PST for temperature in C)
2018,08,14,00,00,16.20
2018,08,14,00,01,16.20
2018,08,14,00,02,16.20
2018,08,14,00,03,16.30
2018,08,14,00,04,16.30
2018,08,14,00,05,16.20
2018,08,14,00,06,16.20
2018,08,14,00,07,16.10
2018,08,14,00,08,16.10
2018,08,14,00,09,16.10
2018,08,14,00,10,16.10
2018,08,14,00,11,16.10
2018,08,14,00,12,16.10
2018,08,14,00,13,16.10
2018,08,14,00,14,16.00
2018,08,14,00,15,16.00
2018,08,14,00,16,16.00
2018,08,14,00,17,16.00
2018,08,14,00,18,15.90
2018,08,14,00,19,15.90
2018,08,14,00,20,15.90
2018,08,14,00,21,15.80
2018,08,14,00,22,15.80
2018,08,14,00,23,15.70
2018,08,14,00,24,15.70
2018,08,14,00,25,15.60
2018,08,14,00,26,15.60
2018,08,14,00,27,15.60
2018,08,14,00,28,15.60
2018,08,14,00,29,15.50
2018,08,14,00,30,15.50
2018,08,14,00,31,15.40
2018,08,14,00,32,15.40
2018,08,14,00,33,15.40
2018,08,14,00,34,15.30
2018,08,14,00,35,15.30
2018,08,14,00,36,15.30
2018,08,14,00,37,15.30
2018,08,14,00,38,15.20
2018,08,14,00,39,15.20
2018,08,14,00,40,15.20
2018,08,14,00,41,15.10
2018,08,14,00,42,15.10
2018,08,14,00,43,15.10
2018,08,14,00,44,15.10
2018,08,14,00,45,15.10
2018,08,14,00,46,15.20
2018,08,14,00,47,15.30
2018,08,14,00,48,15.30
2018,08,14,00,49,15.40
2018,08,14,00,50,15.40
2018,08,14,00,51,15.50
2018,08,14,00,52,15.50
2018,08,14,00,53,15.60
2018,08,14,00,54,15.60
2018,08,14,00,55,15.70
2018,08,14,00,56,15.70
2018,08,14,00,57,15.80
2018,08,14,00,58,15.80
2018,08,14,00,59,15.90
2018,08,14,01,00,16.00
2018,08,14,01,01,16.10
2018,08,14,01,02,16.10
2018,08,14,01,03,16.10
2018,08,14,01,04,16.10
2018,08,14,01,05,16.00
2018,08,14,01,06,16.00
2018,08,14,01,07,16.00
2018,08,14,01,08,15.90
2018,08,14,01,09,15.90
2018,08,14,01,10,15.90
2018,08,14,01,11,15.90
2018,08,14,01,12,15.90
2018,08,14,01,13,15.80
2018,08,14,01,14,15.80
2018,08,14,01,15,15.80
2018,08,14,01,16,15.80
2018,08,14,01,17,15.80
2018,08,14,01,18,15.80
2018,08,14,01,19,15.80
2018,08,14,01,20,15.80
2018,08,14,01,21,15.80
2018,08,14,01,22,15.70
2018,08,14,01,23,15.70
2018,08,14,01,24,15.70
2018,08,14,01,25,15.70
2018,08,14,01,26,15.70
2018,08,14,01,27,15.70
2018,08,14,01,28,15.70
2018,08,14,01,29,15.60
2018,08,14,01,30,15.60
2018,08,14,01,31,15.60
2018,08,14,01,32,15.60
2018,08,14,01,33,15.60
2018,08,14,01,34,15.50
2018,08,14,01,35,15.50
2018,08,14,01,36,15.50
2018,08,14,01,37,15.50
2018,08,14,01,38,15.50
2018,08,14,01,39,15.40
2018,08,14,01,40,15.40
2018,08,14,01,41,15.40
2018,08,14,01,42,15.40
2018,08,14,01,43,15.40
2018,08,14,01,44,15.40
2018,08,14,01,45,15.50
2018,08,14,01,46,15.60
2018,08,14,01,47,15.60
2018,08,14,01,48,15.60
2018,08,14,01,49,15.60
2018,08,14,01,50,15.60
2018,08,14,01,51,15.60
2018,08,14,01,52,15.70
2018,08,14,01,53,15.70
2018,08,14,01,54,15.70
2018,08,14,01,55,15.70
2018,08,14,01,56,15.70
2018,08,14,01,57,15.80
2018,08,14,01,58,15.80
2018,08,14,01,59,15.80
2018,08,14,02,00,15.80
2018,08,14,02,01,15.90
2018,08,14,02,02,15.90
2018,08,14,02,03,16.00
2018,08,14,02,04,16.00
2018,08,14,02,05,16.10
2018,08,14,02,06,16.10
2018,08,14,02,07,16.10
2018,08,14,02,08,16.10
2018,08,14,02,09,16.10
2018,08,14,02,10,16.10
2018,08,14,02,11,16.10
2018,08,14,02,12,16.10
2018,08,14,02,13,16.00
2018,08,14,02,14,15.90
2018,08,14,02,15,15.90
2018,08,14,02,16,15.90
2018,08,14,02,17,15.80
2018,08,14,02,18,15.80
2018,08,14,02,19,15.80
2018,08,14,02,20,15.70
2018,08,14,02,21,15.70
2018,08,14,02,22,15.70
2018,08,14,02,23,15.70
2018,08,14,02,24,15.70
2018,08,14,02,25,15.60
2018,08,14,02,26,15.60
2018,08,14,02,27,15.60
2018,08,14,02,28,15.60
2018,08,14,02,29,15.60
2018,08,14,02,30,15.60
2018,08,14,02,31,15.70
2018,08,14,02,32,15.70
2018,08,14,02,33,15.70
2018,08,14,02,34,15.80
2018,08,14,02,35,15.80
2018,08,14,02,36,15.90
2018,08,14,02,37,15.90
2018,08,14,02,38,15.90
2018,08,14,02,39,15.90
2018,08,14,02,40,15.90
2018,08,14,02,41,16.00
2018,08,14,02,42,15.90
2018,08,14,02,43,15.90
2018,08,14,02,44,15.90
2018,08,14,02,45,15.90
2018,08,14,02,46,15.90
2018,08,14,02,47,16.00
2018,08,14,02,48,16.00
2018,08,14,02,49,16.00
2018,08,14,02,50,16.00
2018,08,14,02,51,16.00
2018,08,14,02,52,15.90
2018,08,14,02,53,15.90
2018,08,14,02,54,15.90
2018,08,14,02,55,15.90
2018,08,14,02,56,15.90
2018,08,14,02,57,15.90
2018,08,14,02,58,15.90
2018,08,14,02,59,15.80
2018,08,14,03,00,15.80
2018,08,14,03,01,15.80
2018,08,14,03,02,15.80
2018,08,14,03,03,15.80
2018,08,14,03,04,15.80
2018,08,14,03,05,15.80
2018,08,14,03,06,15.80
2018,08,14,03,07,15.80
2018,08,14,03,08,15.80
2018,08,14,03,09,15.80
2018,08,14,03,10,15.80
2018,08,14,03,11,15.80
2018,08,14,03,12,15.80
2018,08,14,03,13,15.80
2018,08,14,03,14,15.80
2018,08,14,03,15,15.70
2018,08,14,03,16,15.70
2018,08,14,03,17,15.70
2018,08,14,03,18,15.70
2018,08,14,03,19,15.60
2018,08,14,03,20,15.60
2018,08,14,03,21,15.50
2018,08,14,03,22,15.40
2018,08,14,03,23,15.40
2018,08,14,03,24,15.30
2018,08,14,03,25,15.30
2018,08,14,03,26,15.30
2018,08,14,03,27,15.20
2018,08,14,03,28,15.20
2018,08,14,03,29,15.20
2018,08,14,03,30,15.20
2018,08,14,03,31,15.20
2018,08,14,03,32,15.20
2018,08,14,03,33,15.20
2018,08,14,03,34,15.20
2018,08,14,03,35,15.20
2018,08,14,03,36,15.20
2018,08,14,03,37,15.10
2018,08,14,03,38,15.10
2018,08,14,03,39,15.00
2018,08,14,03,40,15.00
2018,08,14,03,41,14.90
2018,08,14,03,42,14.90
2018,08,14,03,43,14.90
2018,08,14,03,44,15.00
2018,08,14,03,45,15.00
2018,08,14,03,46,15.10
2018,08,14,03,47,15.10
2018,08,14,03,48,15.10
2018,08,14,03,49,15.10
2018,08,14,03,50,15.10
2018,08,14,03,51,15.10
2018,08,14,03,52,15.10
2018,08,14,03,53,15.10
2018,08,14,03,54,15.10
2018,08,14,03,55,15.10
2018,08,14,03,56,15.10
2018,08,14,03,57,15.10
2018,08,14,03,58,15.10
2018,08,14,03,59,15.10
2018,08,14,04,00,15.10
2018,08,14,04,01,15.00
2018,08,14,04,02,14.90
2018,08,14,04,03,14.80
2018,08,14,04,04,14.80
2018,08,14,04,05,14.80
2018,08,14,04,06,14.70
2018,08,14,04,07,14.70
2018,08,14,04,08,14.70
2018,08,14,04,09,14.70
2018,08,14,04,10,14.70
2018,08,14,04,11,14.70
2018,08,14,04,12,14.70
2018,08,14,04,13,14.70
2018,08,14,04,14,14.70
2018,08,14,04,15,14.70
2018,08,14,04,16,14.70
2018,08,14,04,17,14.70
2018,08,14,04,18,14.80
2018,08,14,04,19,14.80
2018,08,14,04,20,14.80
2018,08,14,04,21,14.80
2018,08,14,04,22,14.80
2018,08,14,04,23,14.80
2018,08,14,04,24,14.80
2018,08,14,04,25,14.80
2018,08,14,04,26,14.80
2018,08,14,04,27,14.70
2018,08,14,04,28,14.70
2018,08,14,04,29,14.70
2018,08,14,04,30,14.70
2018,08,14,04,31,14.70
2018,08,14,04,32,14.70
2018,08,14,04,33,14.70
2018,08,14,04,34,14.60
2018,08,14,04,35,14.60
2018,08,14,04,36,14.60
2018,08,14,04,37,14.60
2018,08,14,04,38,14.60
2018,08,14,04,39,14.60
2018,08,14,04,40,14.60
2018,08,14,04,41,14.60
2018,08,14,04,42,14.50
2018,08,14,04,43,14.50
2018,08,14,04,44,14.50
2018,08,14,04,45,14.40
2018,08,14,04,46,14.40
2018,08,14,04,47,14.40
2018,08,14,04,48,14.40
2018,08,14,04,49,14.40
2018,08,14,04,50,14.40
2018,08,14,04,51,14.40
2018,08,14,04,52,14.40
2018,08,14,04,53,14.40
2018,08,14,04,54,14.40
2018,08,14,04,55,14.40
2018,08,14,04,56,14.30
2018,08,14,04,57,14.30
2018,08,14,04,58,14.30
2018,08,14,04,59,14.30
2018,08,14,05,00,14.20
2018,08,14,05,01,14.20
2018,08,14,05,02,14.20
2018,08,14,05,03,14.20
2018,08,14,05,04,14.20
2018,08,14,05,05,14.20
2018,08,14,05,06,14.20
2018,08,14,05,07,14.20
2018,08,14,05,08,14.20
2018,08,14,05,09,14.20
2018,08,14,05,10,14.20
2018,08,14,05,11,14.20
2018,08,14,05,12,14.20
2018,08,14,05,13,14.20
2018,08,14,05,14,14.20
2018,08,14,05,15,14.20
2018,08,14,05,16,14.20
2018,08,14,05,17,14.20
2018,08,14,05,18,14.20
2018,08,14,05,19,14.20
2018,08,14,05,20,14.20
2018,08,14,05,21,14.20
2018,08,14,05,22,14.20
2018,08,14,05,23,14.20
2018,08,14,05,24,14.20
2018,08,14,05,25,14.20
2018,08,14,05,26,14.20
2018,08,14,05,27,14.20
2018,08,14,05,28,14.20
2018,08,14,05,29,14.20
2018,08,14,05,30,14.20
2018,08,14,05,31,14.20
2018,08,14,05,32,14.20
2018,08,14,05,33,14.10
2018,08,14,05,34,14.10
2018,08,14,05,35,14.00
2018,08,14,05,36,14.00
2018,08,14,05,37,13.90
2018,08,14,05,38,13.90
2018,08,14,05,39,13.80
2018,08,14,05,40,13.80
2018,08,14,05,41,13.80
2018,08,14,05,42,13.80
2018,08,14,05,43,13.80
2018,08,14,05,44,13.80
2018,08,14,05,45,13.80
2018,08,14,05,46,13.70
2018,08,14,05,47,13.70
2018,08,14,05,48,13.70
2018,08,14,05,49,13.60
2018,08,14,05,50,13.60
2018,08,14,05,51,13.50
2018,08,14,05,52,13.50
2018,08,14,05,53,13.50
2018,08,14,05,54,13.40
2018,08,14,05,55,13.40
2018,08,14,05,56,13.30
2018,08,14,05,57,13.30
2018,08,14,05,58,13.30
2018,08,14,05,59,13.30
2018,08,14,06,00,13.30
2018,08,14,06,01,13.30
2018,08,14,06,02,13.30
2018,08,14,06,03,13.30
2018,08,14,06,04,13.30
2018,08,14,06,05,13.30
2018,08,14,06,06,13.20
2018,08,14,06,07,13.20
2018,08,14,06,08,13.20
2018,08,14,06,09,13.20
2018,08,14,06,10,13.10
2018,08,14,06,11,13.10
2018,08,14,06,12,13.10
2018,08,14,06,13,13.10
2018,08,14,06,14,13.10
2018,08,14,06,15,13.10
2018,08,14,06,16,13.10
2018,08,14,06,17,13.00
2018,08,14,06,18,13.00
2018,08,14,06,19,13.00
2018,08,14,06,20,13.10
2018,08,14,06,21,13.10
2018,08,14,06,22,13.10
2018,08,14,06,23,13.20
2018,08,14,06,24,13.30
2018,08,14,06,25,13.40
2018,08,14,06,26,13.50
2018,08,14,06,27,13.50
2018,08,14,06,28,13.60
2018,08,14,06,29,13.70
2018,08,14,06,30,13.70
2018,08,14,06,31,13.70
2018,08,14,06,32,13.70
2018,08,14,06,33,13.80
2018,08,14,06,34,13.80
2018,08,14,06,35,13.80
2018,08,14,06,36,13.90
2018,08,14,06,37,13.90
2018,08,14,06,38,13.90
2018,08,14,06,39,13.90
2018,08,14,06,40,14.00
2018,08,14,06,41,14.00
2018,08,14,06,42,14.00
2018,08,14,06,43,13.90
2018,08,14,06,44,13.90
2018,08,14,06,45,14.00
2018,08,14,06,46,14.00
2018,08,14,06,47,14.00
2018,08,14,06,48,14.00
2018,08,14,06,49,14.10
2018,08,14,06,50,14.10
2018,08,14,06,51,14.10
2018,08,14,06,52,14.10
2018,08,14,06,53,14.10
2018,08,14,06,54,14.10
2018,08,14,06,55,14.10
2018,08,14,06,56,14.10
2018,08,14,06,57,14.10
2018,08,14,06,58,14.00
2018,08,14,06,59,14.00
2018,08,14,07,00,14.00
2018,08,14,07,01,13.90
2018,08,14,07,02,13.80
2018,08,14,07,03,13.80
2018,08,14,07,04,13.70
2018,08,14,07,05,13.70
2018,08,14,07,06,13.70
2018,08,14,07,07,13.70
2018,08,14,07,08,13.70
2018,08,14,07,09,13.70
2018,08,14,07,10,13.70
2018,08,14,07,11,13.70
2018,08,14,07,12,13.70
2018,08,14,07,13,13.70
2018,08,14,07,14,13.70
2018,08,14,07,15,13.60
2018,08,14,07,16,13.60
2018,08,14,07,17,13.60
2018,08,14,07,18,13.60
2018,08,14,07,19,13.70
2018,08,14,07,20,13.70
2018,08,14,07,21,13.70
2018,08,14,07,22,13.70
2018,08,14,07,23,13.70
2018,08,14,07,24,13.70
2018,08,14,07,25,13.70
2018,08,14,07,26,13.70
2018,08,14,07,27,13.70
2018,08,14,07,28,13.70
2018,08,14,07,29,13.70
2018,08,14,07,30,13.80
2018,08,14,07,31,13.80
2018,08,14,07,32,13.80
2018,08,14,07,33,13.80
2018,08,14,07,34,13.80
2018,08,14,07,35,13.80
2018,08,14,07,36,13.80
2018,08,14,07,37,13.80
2018,08,14,07,38,13.80
2018,08,14,07,39,13.80
2018,08,14,07,40,13.80
2018,08,14,07,41,13.90
2018,08,14,07,42,13.90
2018,08,14,07,43,13.90
2018,08,14,07,44,14.00
2018,08,14,07,45,14.00
2018,08,14,07,46,14.00
2018,08,14,07,47,14.10
2018,08,14,07,48,14.10
2018,08,14,07,49,14.10
2018,08,14,07,50,14.10
2018,08,14,07,51,14.10
2018,08,14,07,52,14.20
2018,08,14,07,53,14.20
2018,08,14,07,54,14.20
2018,08,14,07,55,14.20
2018,08,14,07,56,14.20
2018,08,14,07,57,14.20
2018,08,14,07,58,14.20
2018,08,14,07,59,14.20
2018,08,14,08,00,14.20
2018,08,14,08,01,14.30
2018,08,14,08,02,14.30
2018,08,14,08,03,14.30
2018,08,14,08,04,14.30
2018,08,14,08,05,14.30
2018,08,14,08,06,14.30
2018,08,14,08,07,14.40
2018,08,14,08,08,14.40
2018,08,14,08,09,14.40
2018,08,14,08,10,14.40
2018,08,14,08,11,14.50
2018,08,14,08,12,14.50
2018,08,14,08,13,14.50
2018,08,14,08,14,14.50
2018,08,14,08,15,14.50
2018,08,14,08,16,14.50
2018,08,14,08,17,14.50
2018,08,14,08,18,14.50
2018,08,14,08,19,14.60
2018,08,14,08,20,14.60
2018,08,14,08,21,14.60
2018,08,14,08,22,14.60
2018,08,14,08,23,14.60
2018,08,14,08,24,14.60
2018,08,14,08,25,14.60
2018,08,14,08,26,14.60
2018,08,14,08,27,14.70
2018,08,14,08,28,14.70
2018,08,14,08,29,14.70
2018,08,14,08,30,14.70
2018,08,14,08,31,14.70
2018,08,14,08,32,14.80
2018,08,14,08,33,14.80
2018,08,14,08,34,14.80
2018,08,14,08,35,14.80
2018,08,14,08,36,14.80
2018,08,14,08,37,14.90
2018,08,14,08,38,14.90
2018,08,14,08,39,14.90
2018,08,14,08,40,15.00
2018,08,14,08,41,15.00
2018,08,14,08,42,15.10
2018,08,14,08,43,15.10
2018,08,14,08,44,15.20
2018,08,14,08,45,15.20
2018,08,14,08,46,15.20
2018,08,14,08,47,15.30
2018,08,14,08,48,15.30
2018,08,14,08,49,15.30
2018,08,14,08,50,15.40
2018,08,14,08,51,15.40
2018,08,14,08,52,15.40
2018,08,14,08,53,15.40
2018,08,14,08,54,15.40
2018,08,14,08,55,15.40
2018,08,14,08,56,15.40
2018,08,14,08,57,15.40
2018,08,14,08,58,15.40
2018,08,14,08,59,15.40
2018,08,14,09,00,15.50
2018,08,14,09,01,15.50
2018,08,14,09,02,15.60
2018,08,14,09,03,15.60
2018,08,14,09,04,15.60
2018,08,14,09,05,15.60
2018,08,14,09,06,15.60
2018,08,14,09,07,15.60
2018,08,14,09,08,15.70
2018,08,14,09,09,15.70
2018,08,14,09,10,15.70
2018,08,14,09,11,15.70
2018,08,14,09,12,15.80
2018,08,14,09,13,15.80
2018,08,14,09,14,15.80
2018,08,14,09,15,15.80
2018,08,14,09,16,15.90
2018,08,14,09,17,15.90
2018,08,14,09,18,15.90
2018,08,14,09,19,15.90
2018,08,14,09,20,15.80
2018,08,14,09,21,15.80
2018,08,14,09,22,15.80
2018,08,14,09,23,15.70
2018,08,14,09,24,15.70
2018,08,14,09,25,15.70
2018,08,14,09,26,15.70
2018,08,14,09,27,15.80
2018,08,14,09,28,15.80
2018,08,14,09,29,15.80
2018,08,14,09,30,15.80
2018,08,14,09,31,15.80
2018,08,14,09,32,15.80
2018,08,14,09,33,15.80
2018,08,14,09,34,15.80
2018,08,14,09,35,15.90
2018,08,14,09,36,15.90
2018,08,14,09,37,15.90
2018,08,14,09,38,15.90
2018,08,14,09,39,15.90
2018,08,14,09,40,15.90
2018,08,14,09,41,15.90
2018,08,14,09,42,15.90
2018,08,14,09,43,16.00
2018,08,14,09,44,16.00
2018,08,14,09,45,16.00
2018,08,14,09,46,16.10
2018,08,14,09,47,16.10
2018,08,14,09,48,16.10
2018,08,14,09,49,16.20
2018,08,14,09,50,16.10
2018,08,14,09,51,16.10
2018,08,14,09,52,16.10
2018,08,14,09,53,16.10
2018,08,14,09,54,16.10
2018,08,14,09,55,16.10
2018,08,14,09,56,16.10
2018,08,14,09,57,16.20
2018,08,14,09,58,16.30
2018,08,14,09,59,16.30
2018,08,14,10,00,16.30
2018,08,14,10,01,16.30
2018,08,14,10,02,16.30
2018,08,14,10,03,16.30
2018,08,14,10,04,16.30
2018,08,14,10,05,16.30
2018,08,14,10,06,16.30
2018,08,14,10,07,16.30
2018,08,14,10,08,16.40
2018,08,14,10,09,16.40
2018,08,14,10,10,16.50
2018,08,14,10,11,16.50
2018,08,14,10,12,16.60
2018,08,14,10,13,16.60
2018,08,14,10,14,16.70
2018,08,14,10,15,16.70
2018,08,14,10,16,16.70
2018,08,14,10,17,16.70
2018,08,14,10,18,16.70
2018,08,14,10,19,16.70
2018,08,14,10,20,16.70
2018,08,14,10,21,16.80
2018,08,14,10,22,16.80
2018,08,14,10,23,16.90
2018,08,14,10,24,17.00
2018,08,14,10,25,17.00
2018,08,14,10,26,17.00
2018,08,14,10,27,17.10
2018,08,14,10,28,17.10
2018,08,14,10,29,17.10
2018,08,14,10,30,17.10
2018,08,14,10,31,17.20
2018,08,14,10,32,17.20
2018,08,14,10,33,17.20
2018,08,14,10,34,17.30
2018,08,14,10,35,17.30
2018,08,14,10,36,17.40
2018,08,14,10,37,17.40
2018,08,14,10,38,17.40
2018,08,14,10,39,17.50
2018,08,14,10,40,17.60
2018,08,14,10,41,17.70
2018,08,14,10,42,17.70
2018,08,14,10,43,17.80
2018,08,14,10,44,17.90
2018,08,14,10,45,17.90
2018,08,14,10,46,18.00
2018,08,14,10,47,18.10
2018,08,14,10,48,18.20
2018,08,14,10,49,18.20
2018,08,14,10,50,18.30
2018,08,14,10,51,18.10
2018,08,14,10,52,18.00
2018,08,14,10,53,17.90
2018,08,14,10,54,17.90
2018,08,14,10,55,17.80
2018,08,14,10,56,17.80
2018,08,14,10,57,17.80
2018,08,14,10,58,17.80
2018,08,14,10,59,17.90
2018,08,14,11,00,17.90
2018,08,14,11,01,17.90
2018,08,14,11,02,18.00
2018,08,14,11,03,18.10
2018,08,14,11,04,18.10
2018,08,14,11,05,18.20
2018,08,14,11,06,18.20
2018,08,14,11,07,18.20
2018,08,14,11,08,18.20
2018,08,14,11,09,18.20
2018,08,14,11,10,18.20
2018,08,14,11,11,18.30
2018,08,14,11,12,18.40
2018,08,14,11,13,18.50
2018,08,14,11,14,18.60
2018,08,14,11,15,18.70
2018,08,14,11,16,18.70
2018,08,14,11,17,18.80
2018,08,14,11,18,18.90
2018,08,14,11,19,19.00
2018,08,14,11,20,19.10
2018,08,14,11,21,19.10
2018,08,14,11,22,19.20
2018,08,14,11,23,19.30
2018,08,14,11,24,19.30
2018,08,14,11,25,19.30
2018,08,14,11,26,19.40
2018,08,14,11,27,19.40
2018,08,14,11,28,19.50
2018,08,14,11,29,19.60
2018,08,14,11,30,19.70
2018,08,14,11,31,19.70
2018,08,14,11,32,19.70
2018,08,14,11,33,19.80
2018,08,14,11,34,19.80
2018,08,14,11,35,19.90
2018,08,14,11,36,19.90
2018,08,14,11,37,19.90
2018,08,14,11,38,19.80
2018,08,14,11,39,19.80
2018,08,14,11,40,19.80
2018,08,14,11,41,19.80
2018,08,14,11,42,19.80
2018,08,14,11,43,19.80
2018,08,14,11,44,19.80
2018,08,14,11,45,19.80
2018,08,14,11,46,19.70
2018,08,14,11,47,19.70
2018,08,14,11,48,19.70
2018,08,14,11,49,19.70
2018,08,14,11,50,19.60
2018,08,14,11,51,19.60
2018,08,14,11,52,19.50
2018,08,14,11,53,19.50
2018,08,14,11,54,19.60
2018,08,14,11,55,19.60
2018,08,14,11,56,19.70
2018,08,14,11,57,19.70
2018,08,14,11,58,19.80
2018,08,14,11,59,19.80
2018,08,14,12,00,19.90
2018,08,14,12,01,19.90
2018,08,14,12,02,20.00
2018,08,14,12,03,20.10
2018,08,14,12,04,20.10
2018,08,14,12,05,20.20
2018,08,14,12,06,20.30
2018,08,14,12,07,20.30
2018,08,14,12,08,20.30
2018,08,14,12,09,20.30
2018,08,14,12,10,20.30
2018,08,14,12,11,20.30
2018,08,14,12,12,20.30
2018,08,14,12,13,20.30
2018,08,14,12,14,20.40
2018,08,14,12,15,20.40
2018,08,14,12,16,20.50
2018,08,14,12,17,20.60
2018,08,14,12,18,20.70
2018,08,14,12,19,20.80
2018,08,14,12,20,20.80
2018,08,14,12,21,20.90
2018,08,14,12,22,21.00
2018,08,14,12,23,21.10
2018,08,14,12,24,21.20
2018,08,14,12,25,21.20
2018,08,14,12,26,21.30
2018,08,14,12,27,21.30
2018,08,14,12,28,21.40
2018,08,14,12,29,21.50
2018,08,14,12,30,21.50
2018,08,14,12,31,21.60
2018,08,14,12,32,21.70
2018,08,14,12,33,21.70
2018,08,14,12,34,21.60
2018,08,14,12,35,21.60
2018,08,14,12,36,21.60
2018,08,14,12,37,21.60
2018,08,14,12,38,21.60
2018,08,14,12,39,21.60
2018,08,14,12,40,21.60
2018,08,14,12,41,21.40
2018,08,14,12,42,21.30
2018,08,14,12,43,21.20
2018,08,14,12,44,21.20
2018,08,14,12,45,21.20
2018,08,14,12,46,21.20
2018,08,14,12,47,21.20
2018,08,14,12,48,21.20
2018,08,14,12,49,21.20
2018,08,14,12,50,21.20
2018,08,14,12,51,21.30
2018,08,14,12,52,21.30
2018,08,14,12,53,21.30
2018,08,14,12,54,21.30
2018,08,14,12,55,21.40
2018,08,14,12,56,21.30
2018,08,14,12,57,21.30
2018,08,14,12,58,21.30
2018,08,14,12,59,21.20
2018,08,14,13,00,21.20
2018,08,14,13,01,21.30
2018,08,14,13,02,21.30
2018,08,14,13,03,21.30
2018,08,14,13,04,21.30
2018,08,14,13,05,21.40
2018,08,14,13,06,21.50
2018,08,14,13,07,21.60
2018,08,14,13,08,21.70
2018,08,14,13,09,21.80
2018,08,14,13,10,21.90
2018,08,14,13,11,21.90
2018,08,14,13,12,22.00
2018,08,14,13,13,22.10
2018,08,14,13,14,22.20
2018,08,14,13,15,22.30
2018,08,14,13,16,22.30
2018,08,14,13,17,22.30
2018,08,14,13,18,22.30
2018,08,14,13,19,22.30
2018,08,14,13,20,22.30
2018,08,14,13,21,22.30
2018,08,14,13,22,22.30
2018,08,14,13,23,22.30
2018,08,14,13,24,22.30
2018,08,14,13,25,22.30
2018,08,14,13,26,22.30
2018,08,14,13,27,22.30
2018,08,14,13,28,22.40
2018,08,14,13,29,22.40
2018,08,14,13,30,22.40
2018,08,14,13,31,22.50
2018,08,14,13,32,22.60
2018,08,14,13,33,22.70
2018,08,14,13,34,22.80
2018,08,14,13,35,22.90
2018,08,14,13,36,23.00
2018,08,14,13,37,23.10
2018,08,14,13,38,23.10
2018,08,14,13,39,23.10
2018,08,14,13,40,23.20
2018,08,14,13,41,23.20
2018,08,14,13,42,23.30
2018,08,14,13,43,23.30
2018,08,14,13,44,23.30
2018,08,14,13,45,23.30
2018,08,14,13,46,23.20
2018,08,14,13,47,23.10
2018,08,14,13,48,23.10
2018,08,14,13,49,23.00
2018,08,14,13,50,23.00
2018,08,14,13,51,23.10
2018,08,14,13,52,23.10
2018,08,14,13,53,23.10
2018,08,14,13,54,23.20
2018,08,14,13,55,23.20
2018,08,14,13,56,23.20
2018,08,14,13,57,23.10
2018,08,14,13,58,23.20
2018,08,14,13,59,23.10
2018,08,14,14,00,23.10
2018,08,14,14,01,23.10
2018,08,14,14,02,23.20
2018,08,14,14,03,23.10
2018,08,14,14,04,23.10
2018,08,14,14,05,23.10
2018,08,14,14,06,23.20
2018,08,14,14,07,23.30
2018,08,14,14,08,23.40
2018,08,14,14,09,23.50
2018,08,14,14,10,23.60
2018,08,14,14,11,23.70
2018,08,14,14,12,23.90
2018,08,14,14,13,24.00
2018,08,14,14,14,24.10
2018,08,14,14,15,24.20
2018,08,14,14,16,24.30
2018,08,14,14,17,24.40
2018,08,14,14,18,24.50
2018,08,14,14,19,24.60
2018,08,14,14,20,24.70
2018,08,14,14,21,24.80
2018,08,14,14,22,24.90
2018,08,14,14,23,24.90
2018,08,14,14,24,24.90
2018,08,14,14,25,24.80
2018,08,14,14,26,24.80
2018,08,14,14,27,24.70
2018,08,14,14,28,24.70
2018,08,14,14,29,24.70
2018,08,14,14,30,24.60
2018,08,14,14,31,24.60
2018,08,14,14,32,24.60
2018,08,14,14,33,24.60
2018,08,14,14,34,24.60
2018,08,14,14,35,24.60
2018,08,14,14,36,24.50
2018,08,14,14,37,24.50
2018,08,14,14,38,24.40
2018,08,14,14,39,24.40
2018,08,14,14,40,24.40
2018,08,14,14,41,24.40
2018,08,14,14,42,24.40
2018,08,14,14,43,24.50
2018,08,14,14,44,24.60
2018,08,14,14,45,24.70
2018,08,14,14,46,24.80
2018,08,14,14,47,24.90
2018,08,14,14,48,25.00
2018,08,14,14,49,25.10
2018,08,14,14,50,25.20
2018,08,14,14,51,25.20
2018,08,14,14,52,25.20
2018,08,14,14,53,25.20
2018,08,14,14,54,25.20
2018,08,14,14,55,25.10
2018,08,14,14,56,25.20
2018,08,14,14,57,25.20
2018,08,14,14,58,25.30
2018,08,14,14,59,25.40
2018,08,14,15,00,25.60
2018,08,14,15,01,25.70
2018,08,14,15,02,25.80
2018,08,14,15,03,25.90
2018,08,14,15,04,25.90
2018,08,14,15,05,26.00
2018,08,14,15,06,26.10
2018,08,14,15,07,26.30
2018,08,14,15,08,26.40
2018,08,14,15,09,26.50
2018,08,14,15,10,26.50
2018,08,14,15,11,26.50
2018,08,14,15,12,26.40
2018,08,14,15,13,26.40
2018,08,14,15,14,26.30
2018,08,14,15,15,26.20
2018,08,14,15,16,26.10
2018,08,14,15,17,25.90
2018,08,14,15,18,25.80
2018,08,14,15,19,25.60
2018,08,14,15,20,25.40
2018,08,14,15,21,25.30
2018,08,14,15,22,25.30
2018,08,14,15,23,25.20
2018,08,14,15,24,25.20
2018,08,14,15,25,25.20
2018,08,14,15,26,25.20
2018,08,14,15,27,25.20
2018,08,14,15,28,25.20
2018,08,14,15,29,25.20
2018,08,14,15,30,25.30
2018,08,14,15,31,25.30
2018,08,14,15,32,25.40
2018,08,14,15,33,25.40
2018,08,14,15,34,25.40
2018,08,14,15,35,25.40
2018,08,14,15,36,25.40
2018,08,14,15,37,25.50
2018,08,14,15,38,25.60
2018,08,14,15,39,25.70
2018,08,14,15,40,25.80
2018,08,14,15,41,25.80
2018,08,14,15,42,25.80
2018,08,14,15,43,25.80
2018,08,14,15,44,25.90
2018,08,14,15,45,25.90
2018,08,14,15,46,26.00
2018,08,14,15,47,26.00
2018,08,14,15,48,25.90
2018,08,14,15,49,25.80
2018,08,14,15,50,25.60
2018,08,14,15,51,25.60
2018,08,14,15,52,25.50
2018,08,14,15,53,25.40
2018,08,14,15,54,25.30
2018,08,14,15,55,25.10
2018,08,14,15,56,24.90
2018,08,14,15,57,24.80
2018,08,14,15,58,24.60
2018,08,14,15,59,24.50
2018,08,14,16,00,24.40
2018,08,14,16,01,24.40
2018,08,14,16,02,24.40
2018,08,14,16,03,24.40
2018,08,14,16,04,24.40
2018,08,14,16,05,24.60
2018,08,14,16,06,24.60
2018,08,14,16,07,24.70
2018,08,14,16,08,24.80
2018,08,14,16,09,24.90
2018,08,14,16,10,25.00
2018,08,14,16,11,25.10
2018,08,14,16,12,25.20
2018,08,14,16,13,25.30
2018,08,14,16,14,25.30
2018,08,14,16,15,25.40
2018,08,14,16,16,25.40
2018,08,14,16,17,25.50
2018,08,14,16,18,25.60
2018,08,14,16,19,25.60
2018,08,14,16,20,25.50
2018,08,14,16,21,25.60
2018,08,14,16,22,25.60
2018,08,14,16,23,25.60
2018,08,14,16,24,25.60
2018,08,14,16,25,25.60
2018,08,14,16,26,25.70
2018,08,14,16,27,25.70
2018,08,14,16,28,25.80
2018,08,14,16,29,25.90
2018,08,14,16,30,26.00
2018,08,14,16,31,26.10
2018,08,14,16,32,26.10
2018,08,14,16,33,26.20
2018,08,14,16,34,26.30
2018,08,14,16,35,26.40
2018,08,14,16,36,26.50
2018,08,14,16,37,26.70
2018,08,14,16,38,26.80
2018,08,14,16,39,26.70
2018,08,14,16,40,26.60
2018,08,14,16,41,26.50
2018,08,14,16,42,26.40
2018,08,14,16,43,26.40
2018,08,14,16,44,26.30
2018,08,14,16,45,26.30
2018,08,14,16,46,26.30
2018,08,14,16,47,26.20
2018,08,14,16,48,26.10
2018,08,14,16,49,26.10
2018,08,14,16,50,26.00
2018,08,14,16,51,25.90
2018,08,14,16,52,25.80
2018,08,14,16,53,25.80
2018,08,14,16,54,25.80
2018,08,14,16,55,25.80
2018,08,14,16,56,25.70
2018,08,14,16,57,25.70
2018,08,14,16,58,25.70
2018,08,14,16,59,25.60
2018,08,14,17,00,25.60
2018,08,14,17,01,25.50
2018,08,14,17,02,25.40
2018,08,14,17,03,25.30
2018,08,14,17,04,25.30
2018,08,14,17,05,25.20
2018,08,14,17,06,25.20
2018,08,14,17,07,25.20
2018,08,14,17,08,25.20
2018,08,14,17,09,25.20
2018,08,14,17,10,25.20
2018,08,14,17,11,25.20
2018,08,14,17,12,25.30
2018,08,14,17,13,25.40
2018,08,14,17,14,25.40
2018,08,14,17,15,25.50
2018,08,14,17,16,25.60
2018,08,14,17,17,25.70
2018,08,14,17,18,25.70
2018,08,14,17,19,25.80